Location: Unspecified
(52.4361°N, 0.0000°E)
Time: 21:55:55
(UTC+00:00)

PCSat - Visible Passes

Search period start: 15 July 2019 00:00
Search period end: 25 July 2019 00:00
Orbit: 785 x 795 km, 67.1° (Epoch: 15 July)

Date Brightness Start Highest point End Pass type
(mag) Time Alt. Az. Time Alt. Az. Time Alt. Az.
15 Jul 11.8 00:10:00 10° ESE 00:11:34 11° ESE 00:13:08 10° E visible
15 Jul 9.9 01:49:49 17° SSW 01:53:51 59° ESE 01:59:12 10° NE visible
16 Jul 10.2 01:19:36 20° S 01:22:57 46° ESE 01:28:08 10° NE visible
16 Jul 10.4 03:01:13 10° WSW 03:06:26 45° NW 03:11:40 10° NNE visible
17 Jul 10.5 00:49:21 22° SSE 00:52:06 35° ESE 00:57:01 10° NE visible
17 Jul 10.1 02:30:03 10° WSW 02:35:21 55° NW 02:40:43 10° NE visible
18 Jul 10.8 00:19:03 21° SSE 00:21:17 27° ESE 00:25:49 10° NE visible
18 Jul 9.8 01:59:45 15° SW 02:04:18 68° NW 02:09:45 10° NE visible
18 Jul 11.1 23:48:44 18° SE 23:50:31 21° ESE 23:54:30 10° ENE visible
19 Jul 9.6 01:29:25 20° SW 01:33:18 84° NW 01:38:46 10° NE visible
19 Jul 11.3 23:18:22 15° ESE 23:19:47 16° ESE 23:22:59 10° ENE visible
20 Jul 9.5 00:59:03 25° SSW 01:02:19 78° SE 01:07:48 10° NE visible
20 Jul 11.0 02:41:26 10° W 02:46:16 31° NNW 02:51:07 10° NNE visible
20 Jul 11.6 22:47:58 11° ESE 22:49:05 12° ESE 22:50:57 10° E visible
21 Jul 9.7 00:28:39 28° SSW 00:31:24 61° ESE 00:36:46 10° NE visible
21 Jul 10.8 02:10:05 10° WSW 02:15:07 37° NW 02:20:10 10° NNE visible
21 Jul 10.0 23:58:12 29° S 00:00:30 47° ESE 00:05:42 10° NE visible
22 Jul 10.5 01:38:53 10° WSW 01:43:59 44° NW 01:49:13 10° NNE visible
22 Jul 10.3 23:27:41 28° SSE 23:29:39 37° ESE 23:34:36 10° NE visible
23 Jul 10.2 01:08:22 14° WSW 01:12:55 53° NW 01:18:16 10° NE visible
23 Jul 11.7 02:53:20 10° WNW 02:57:30 22° NNW 03:01:39 10° NNE visible
23 Jul 10.6 22:57:08 24° SE 22:58:50 28° ESE 23:03:24 10° NE visible
24 Jul 9.9 00:37:49 18° SW 00:41:51 66° NW 00:47:18 10° NE visible
24 Jul 11.6 02:21:53 10° WNW 02:26:15 24° NNW 02:30:38 10° NNE visible
24 Jul 10.9 22:26:31 19° SE 22:28:03 22° ESE 22:32:07 10° ENE visible
